[[{"header":{"parameterUnit":"m.s-1","parameterCategory":1,"la1":30.2991,"la2":30.254,"lo1":-89.0895,"lo2":-89.0444,"dy":0.0017,"dx":0.0017,"nx":28,"ny":28,"refTime":"2023-07-18T03:00:00:Z","depth":0,"parameterNumber":2,"parameterNumberName":"U-component_of_WINDS"},"data":[0,0,0,0,0,0,0,0,0,0,0,0,0,0,0,0,0,0,0,0,0,0,0,0,0,0,0,0,0,0,0,0,0,0,0,0,0,0,0,0,0,0,0,0,0,0,0,0,0,0,0,0,0,0,0,0,0,0,0.9039,0.904,0,0.9157,0.9159,0.916,0.9142,0.9139,0.9137,0.9135,0.9262,0.9267,0.9273,0,0,0,0,0,0,0,0,0,0,0,0,0,0.88,0.8804,0.9038,0.904,0.9041,0.9157,0.9159,0.916,0.9142,0.9139,0.9137,0.9135,0.9261,0.9267,0.9273,0,0,0,0,0,0,0,0,0,0,0,0,0,0.891,0.8806,0.9038,0.9046,0.9048,0.9157,0.9159,0.9161,0.9142,0.9139,0.9136,0.9133,0.9259,0.9266,0.9274,0.9384,0,0,0.9298,0.9302,0,0,0,0,0,0,0,0,0.8903,0.8918,0.9043,0.9046,0.9048,0.9131,0.9121,0.9236,0.9143,0.9107,0.9135,0.9132,0.9222,0.9232,0.9262,0.939,0.9396,0.9299,0.9304,0.9307,0.9309,0,0,0,0,0,0,0,0.8896,0.8913,0.9086,0.9045,0.9048,0.9045,0.9057,0.9143,0.918,0.911,0.9109,0.9123,0.9222,0.9254,0.9264,0.9397,0.9299,0.9306,0.9311,0.9314,0.9622,0.9625,0,0,0,0,0,0,0.8885,0.8907,0.9082,0.9089,0.8966,0.9052,0.9065,0.9108,0.9179,0.9187,0.9125,0.9121,0.9242,0.9255,0.9269,0.9402,0.9307,0.9315,0.9319,0.9618,0.9622,0.9626,0,0,0,0,0,0,0.888,0.8901,0.9077,0.8998,0.902,0.9059,0.9107,0.9112,0.9143,0.9191,0.9198,0.915,0.924,0.9258,0.9355,0.9406,0.9318,0.9325,0.9614,0.962,0.9624,0.9669,0,0,0,0,0,0,0.8874,0.8899,0.8941,0.8999,0.9024,0.916,0.911,0.9116,0.9156,0.9152,0.9216,0.9224,0.9239,0.9343,0.9363,0.9415,0.9331,0.961,0.9617,0.9623,0.9664,0.9675,0.9686,0,0,0,0,0,0.8865,0.895,0.8943,0.8964,0.9076,0.9163,0.9178,0.9192,0.916,0.9203,0.9233,0.9222,0.9397,0.9353,0.9375,0.9431,0.9607,0.9615,0.9622,0.9659,0.9673,0.9685,0,0,0,0,0,0,0.8899,0.8958,0.8951,0.9057,0.9105,0.916,0.9214,0.9207,0.9267,0.9261,0.9278,0.9292,0.9391,0.9421,0.9371,0.9541,0.9498,0.951,0.9518,0.9532,0.9543,0.9534,0.9338,0,0,0,0,0,0.8918,0.8982,0.9031,0.912,0.9144,0.9175,0.9213,0.922,0.9271,0.9292,0.9329,0.9381,0.9448,0.9492,0.9556,0.9667,0.9681,0.9716,0.9727,0.9736,0.9747,0.9808,0.9824,0.9652,0.9651,0.9651,0,0,0.896,0.9,0.904,0.9128,0.9166,0.9233,0.9192,0.9265,0.9316,0.9304,0.9397,0.9427,0.9485,0.959,0.9639,0.9618,0.9798,0.9746,0.9753,0.9759,0.9818,0.9834,0.9849,0.9657,0.9656,0.9655,0,0,0.907,0.9106,0.9184,0.9223,0.928,0.93,0.9318,0.9374,0.9393,0.9486,0.9479,0.9539,0.9654,0.9696,0.9732,0.9857,0.9848,0.9877,0.9935,0.9994,1.0008,1.002,1.0065,1.008,0.9888,0.9888,0.9888,0,0.9115,0.9214,0.9225,0.9299,0.9338,0.9328,0.9407,0.9445,0.9521,0.9549,0.9524,0.9667,0.9706,0.982,0.985,0.988,0.9902,0.987,1.0005,1.0017,1.0029,1.0071,1.0088,0.9891,0.9891,0.989,0.989,0,0.9266,0.9336,0.9392,0.9463,0.9509,0.9585,0.9608,0.9653,0.9656,0.9678,0.9774,0.982,0.9893,0.992,0.9924,1.0035,1.0021,1.0001,0.9958,1.0048,1.0088,1.0105,0.9895,0.9894,0.9893,0.9893,0,0,0.9402,0.9477,0.9498,0.953,0.9592,0.9647,0.9722,0.9792,0.983,0.9883,0.9947,1.0043,1.0024,1.0066,1.0074,1.0126,1.0222,1.01,1.0101,1.0121,1.0347,1.0361,1.038,1.0216,1.0219,1.0222,1.0342,0,0.9518,0.965,0.9662,0.9781,0.9845,0.9836,0.9902,0.9948,0.9971,1.003,1.0055,1.0123,1.0093,1.0118,1.0169,1.0199,1.0267,1.0191,1.0277,1.028,1.0263,1.0401,1.0417,1.0528,1.0358,1.036,1.0362,0,0.9671,0.9726,0.9851,0.9903,0.993,0.9989,1.0053,1.0109,1.0161,1.0174,1.0219,1.0221,1.03,1.0253,1.0362,1.031,1.0346,1.0366,1.0371,1.038,1.0327,1.0414,1.0564,1.0581,1.0387,1.0385,1.0383,0,0.9757,0.9863,0.9951,0.9978,1.0042,1.0083,1.0112,1.0161,1.0201,1.0258,1.0284,1.035,1.0386,1.0437,1.0457,1.0421,1.0565,1.052,1.0579,1.0579,1.061,1.0608,1.0768,1.0633,1.0633,1.0633,1.0632,0,0.9885,0.9962,0.999,1.0044,1.013,1.0144,1.0229,1.0255,1.0299,1.0359,1.0356,1.0412,1.0434,1.0495,1.051,1.0598,1.0615,1.0628,1.0632,1.0629,1.0627,1.0653,1.0646,1.0637,1.0636,1.0635,1.0635,0,0.9996,1.0018,1.0113,1.0165,1.018,1.0241,1.0285,1.0338,1.0359,1.0435,1.0454,1.0488,1.0559,1.0583,1.067,1.068,1.0783,1.078,1.0765,1.0766,1.0823,1.0817,1.1006,1.1031,1.0879,1.0881,1.0882,0,1.0077,1.0135,1.0192,1.0231,1.0261,1.0324,1.0365,1.038,1.0423,1.0486,1.0532,1.0602,1.0658,1.0772,1.0806,1.0872,1.087,1.0932,1.0881,1.0875,1.0871,1.0868,1.0874,1.0942,1.0943,1.0945,1.0946,0,1.0217,1.0224,1.0283,1.0345,1.0393,1.0443,1.0491,1.0524,1.0546,1.0595,1.0666,1.071,1.0797,1.0867,1.0934,1.0965,1.096,1.0961,1.0978,1.0976,1.0965,1.0972,1.0791,1.0957,1.0956,1.0955,1.0955,1.0954,1.0315,1.0367,1.0414,1.0479,1.0517,1.0562,1.0613,1.064,1.07,1.0771,1.0776,1.0854,1.0904,1.0993,1.1027,1.1088,1.1071,1.1096,1.1103,1.1109,1.1113,1.0955,1.1101,1.1101,1.11,1.11,1.11,0,1.0455,1.0485,1.0544,1.0611,1.0662,1.065,1.0703,1.0747,1.0814,1.0861,1.0916,1.0998,1.1065,1.1103,1.1171,1.1213,1.1212,1.123,1.1227,1.1234,1.1124,1.1103,1.1229,1.1229,1.1229,1.1229,1.1229,1.1229,1.0534,1.062,1.0633,1.0738,1.0768,1.0842,1.0873,1.0915,1.0952,1.1043,1.1098,1.1121,1.1165,1.1235,1.1296,1.1306,1.1331,1.1351,1.1359,1.1255,1.1242,1.123,1.1209,1.1356,1.1356,1.1464,1.1465,1.1465]},{"header":{"parameterUnit":"m.s-1","parameterCategory":1,"la1":30.2991,"la2":30.254,"lo1":-89.0895,"lo2":-89.0444,"dy":0.0017,"dx":0.0017,"nx":28,"ny":28,"refTime":"2023-07-18T03:00:00:Z","depth":0,"parameterNumber":3,"parameterNumberName":"V-component_of_WINDS"},"data":[0,0,0,0,0,0,0,0,0,0,0,0,0,0,0,0,0,0,0,0,0,0,0,0,0,0,0,0,0,0,0,0,0,0,0,0,0,0,0,0,0,0,0,0,0,0,0,0,0,0,0,0,0,0,0,0,0,0,2.3935,2.3936,0,2.4016,2.4017,2.4017,2.404,2.404,2.4039,2.4039,2.4118,2.4121,2.4123,0,0,0,0,0,0,0,0,0,0,0,0,0,2.3791,2.3793,2.3935,2.3936,2.3937,2.4016,2.4017,2.4018,2.404,2.404,2.4039,2.4039,2.4117,2.412,2.4123,0,0,0,0,0,0,0,0,0,0,0,0,0,2.386,2.3794,2.3934,2.3958,2.396,2.4015,2.4017,2.4018,2.4041,2.404,2.4039,2.4039,2.4116,2.412,2.4124,2.416,0,0,2.4135,2.4137,0,0,0,0,0,0,0,0,2.3856,2.3866,2.3953,2.3956,2.3959,2.4017,2.3995,2.4066,2.4041,2.401,2.4039,2.4038,2.4085,2.4091,2.4108,2.4164,2.4168,2.4136,2.4138,2.414,2.4141,0,0,0,0,0,0,0,2.3852,2.3862,2.3967,2.3954,2.3958,2.3961,2.397,2.4008,2.405,2.4013,2.4015,2.4024,2.4086,2.4104,2.411,2.4169,2.4136,2.4139,2.4141,2.4143,2.4251,2.4251,0,0,0,0,0,0,2.3844,2.3858,2.3964,2.3969,2.3905,2.3964,2.3974,2.3999,2.405,2.4057,2.4024,2.4025,2.4098,2.4105,2.4113,2.4154,2.414,2.4143,2.4145,2.425,2.4251,2.4252,0,0,0,0,0,0,2.3841,2.3853,2.3961,2.3914,2.3928,2.3967,2.3995,2.4001,2.4019,2.4059,2.4066,2.4035,2.4098,2.4107,2.4147,2.4158,2.4145,2.4148,2.4249,2.425,2.4251,2.4241,0,0,0,0,0,0,2.3836,2.3852,2.3869,2.3914,2.393,2.3997,2.3996,2.4003,2.4026,2.4027,2.4071,2.4077,2.4098,2.4141,2.4151,2.4163,2.4151,2.4249,2.425,2.4251,2.424,2.4241,2.4242,0,0,0,0,0,2.3831,2.3864,2.387,2.3882,2.3953,2.3997,2.4006,2.403,2.4027,2.4042,2.4066,2.4076,2.4155,2.4145,2.4156,2.4169,2.4248,2.425,2.4251,2.424,2.4241,2.4242,0,0,0,0,0,0,2.382,2.387,2.3878,2.3926,2.3957,2.4001,2.4022,2.4032,2.4064,2.4063,2.409,2.41,2.4136,2.4157,2.4145,2.4203,2.4201,2.4205,2.4189,2.419,2.4191,2.4185,2.4154,0,0,0,0,0,2.3822,2.3856,2.3898,2.3936,2.3951,2.3983,2.4004,2.4019,2.4052,2.4065,2.4092,2.4122,2.4152,2.4173,2.4204,2.4242,2.425,2.4256,2.4257,2.4257,2.426,2.4276,2.4278,2.4256,2.4256,2.4256,0,0,2.3829,2.3861,2.3881,2.3935,2.396,2.3991,2.3995,2.4029,2.4051,2.407,2.4108,2.4128,2.4162,2.42,2.4218,2.4218,2.4267,2.4259,2.4259,2.4262,2.4278,2.428,2.4282,2.4257,2.4257,2.4257,0,0,2.3857,2.3886,2.3919,2.3943,2.3981,2.4001,2.4008,2.4049,2.4063,2.4102,2.4114,2.4139,2.4193,2.4215,2.4234,2.426,2.4268,2.4269,2.4273,2.4289,2.4291,2.4292,2.4298,2.43,2.4272,2.4272,2.4272,0,2.3861,2.391,2.3934,2.3965,2.3986,2.4003,2.4033,2.4055,2.4101,2.4113,2.4112,2.4175,2.42,2.4241,2.4246,2.4262,2.4268,2.4265,2.4289,2.4291,2.4292,2.4298,2.4301,2.4271,2.4271,2.4271,2.4271,0,2.3909,2.3942,2.3963,2.4005,2.4028,2.4059,2.4084,2.4104,2.4115,2.4133,2.4168,2.4197,2.4232,2.4242,2.4255,2.4282,2.428,2.4284,2.4282,2.4294,2.4299,2.4302,2.4271,2.4271,2.4271,2.4271,0,0,2.3937,2.3987,2.3994,2.401,2.4049,2.4074,2.4102,2.4136,2.415,2.4179,2.42,2.4242,2.4243,2.4264,2.4277,2.4291,2.4304,2.4292,2.4293,2.4291,2.4332,2.4328,2.4331,2.431,2.431,2.4311,2.4328,0,2.3967,2.4021,2.4039,2.4082,2.4109,2.4121,2.4145,2.417,2.4186,2.4209,2.4226,2.4254,2.4256,2.4267,2.4281,2.43,2.4313,2.4299,2.4327,2.4328,2.4318,2.4335,2.4332,2.4348,2.4331,2.4331,2.4331,0,2.4012,2.4039,2.4083,2.4113,2.4125,2.4147,2.4175,2.4198,2.4224,2.4234,2.4253,2.4264,2.429,2.4286,2.4319,2.4309,2.4321,2.4331,2.4332,2.4335,2.4331,2.4336,2.4353,2.4355,2.4336,2.4335,2.4335,0,2.4022,2.407,2.4101,2.4115,2.4152,2.4165,2.4181,2.4206,2.4222,2.4246,2.4256,2.4282,2.4296,2.4314,2.4331,2.4327,2.4361,2.4359,2.4367,2.4367,2.4375,2.4374,2.4392,2.4384,2.4384,2.4384,2.4384,0,2.4053,2.4079,2.4106,2.4125,2.4152,2.4171,2.4197,2.4213,2.4233,2.4253,2.4265,2.4283,2.4304,2.4323,2.4336,2.4359,2.4366,2.4372,2.4375,2.4371,2.437,2.4379,2.4378,2.4385,2.4385,2.4384,2.4384,0,2.4071,2.409,2.4124,2.4154,2.4161,2.418,2.4204,2.4221,2.4235,2.4259,2.4266,2.4288,2.4311,2.4329,2.4359,2.4367,2.439,2.4394,2.4382,2.4383,2.439,2.4388,2.4414,2.4417,2.4408,2.4408,2.4408,0,2.4089,2.4109,2.4139,2.4152,2.4167,2.419,2.4206,2.4223,2.4238,2.4264,2.4277,2.43,2.432,2.4355,2.4373,2.4394,2.4398,2.4405,2.4401,2.4394,2.4395,2.4393,2.4393,2.4406,2.4406,2.4406,2.4406,0,2.4118,2.4124,2.4147,2.4171,2.4188,2.4208,2.4228,2.4238,2.4258,2.4274,2.4297,2.4312,2.434,2.4362,2.4384,2.4397,2.4403,2.4406,2.4409,2.4405,2.4396,2.4398,2.4382,2.4406,2.4406,2.4406,2.4406,2.4406,2.4134,2.415,2.4172,2.4195,2.421,2.4227,2.4243,2.4257,2.4277,2.4302,2.431,2.4332,2.4351,2.4381,2.4394,2.441,2.441,2.4415,2.4416,2.4416,2.4414,2.4393,2.4414,2.4414,2.4414,2.4414,2.4414,0,2.4161,2.4174,2.4195,2.422,2.4237,2.424,2.4261,2.4274,2.4294,2.4311,2.4329,2.4352,2.4371,2.4388,2.4408,2.4417,2.442,2.4421,2.4421,2.4423,2.4414,2.4409,2.4418,2.4418,2.4418,2.4418,2.4418,2.4418,2.4177,2.4202,2.421,2.4241,2.4254,2.4276,2.4286,2.43,2.4313,2.4339,2.4355,2.4366,2.4381,2.4401,2.4418,2.4422,2.4427,2.4428,2.4432,2.4424,2.4424,2.4423,2.4418,2.4429,2.4429,2.4439,2.4439,2.4439]}]]